[[{"header":{"parameterUnit":"m.s-1","parameterCategory":1,"la1":30.2991,"la2":30.254,"lo1":-89.0895,"lo2":-89.0444,"dy":0.0017,"dx":0.0017,"nx":28,"ny":28,"refTime":"2025-01-23T03:00:00:Z","depth":0,"parameterNumber":2,"parameterNumberName":"U-component_of_WINDS"},"data":[0,0,0,0,0,0,0,0,0,0,0,0,0,0,0,0,0,0,0,0,0,0,0,0,0,0,0,0,0,0,0,0,0,0,0,0,0,0,0,0,0,0,0,0,0,0,0,0,0,0,0,0,0,0,0,0,0,0,0.5332,0.5331,0,0.5259,0.5258,0.5257,0.5258,0.5259,0.526,0.5261,0.5183,0.518,0.5177,0,0,0,0,0,0,0,0,0,0,0,0,0,0.547,0.5467,0.5332,0.5331,0.533,0.5259,0.5258,0.5257,0.5258,0.5259,0.5261,0.5262,0.5184,0.5181,0.5177,0,0,0,0,0,0,0,0,0,0,0,0,0,0.5405,0.5467,0.5332,0.5322,0.5321,0.5259,0.5258,0.5257,0.5258,0.5259,0.5261,0.5262,0.5185,0.5181,0.5176,0.5119,0,0,0.5163,0.5161,0,0,0,0,0,0,0,0,0.5408,0.54,0.5325,0.5323,0.5321,0.527,0.5278,0.5211,0.5258,0.5282,0.5261,0.5263,0.521,0.5204,0.5187,0.5115,0.5112,0.5162,0.516,0.5158,0.5156,0,0,0,0,0,0,0,0.5413,0.5403,0.5303,0.5324,0.5321,0.5321,0.5313,0.5265,0.5239,0.528,0.528,0.5271,0.521,0.5191,0.5185,0.5111,0.5162,0.5158,0.5156,0.5154,0.4989,0.4988,0,0,0,0,0,0,0.542,0.5407,0.5305,0.5301,0.5369,0.5317,0.5309,0.5284,0.5239,0.5234,0.527,0.5272,0.5198,0.519,0.5182,0.5112,0.5158,0.5153,0.5151,0.4991,0.4989,0.4987,0,0,0,0,0,0,0.5423,0.5411,0.5308,0.5354,0.5341,0.5313,0.5286,0.5282,0.5264,0.5232,0.5227,0.5256,0.5199,0.5189,0.5135,0.5109,0.5151,0.5147,0.4993,0.499,0.4988,0.4971,0,0,0,0,0,0,0.5427,0.5412,0.539,0.5353,0.5338,0.5263,0.5285,0.528,0.5256,0.5258,0.5218,0.5212,0.5199,0.5142,0.5131,0.5104,0.5144,0.4995,0.4992,0.4989,0.4974,0.4968,0.4964,0,0,0,0,0,0.5432,0.5388,0.5389,0.5377,0.5311,0.5262,0.5253,0.524,0.5254,0.5232,0.5212,0.5213,0.5115,0.5136,0.5124,0.5095,0.4997,0.4993,0.4989,0.4976,0.4969,0.4964,0,0,0,0,0,0,0.542,0.5382,0.5384,0.5327,0.5298,0.5262,0.5233,0.5233,0.5198,0.5201,0.5186,0.5176,0.5123,0.5104,0.5129,0.5038,0.5057,0.5051,0.5052,0.5045,0.504,0.5045,0.514,0,0,0,0,0,0.5412,0.5376,0.5344,0.5297,0.5282,0.526,0.5238,0.5231,0.52,0.5187,0.5163,0.5132,0.5094,0.5069,0.5032,0.4972,0.4963,0.4946,0.4941,0.4937,0.4931,0.4898,0.489,0.4975,0.4975,0.4975,0,0,0.5392,0.5367,0.5345,0.5294,0.5271,0.5233,0.525,0.5209,0.5181,0.5181,0.5129,0.511,0.5074,0.5018,0.4991,0.5,0.4906,0.4932,0.493,0.4925,0.4893,0.4885,0.4878,0.4972,0.4973,0.4973,0,0,0.5338,0.5316,0.5274,0.525,0.5216,0.5202,0.5192,0.5156,0.5144,0.5093,0.5092,0.5058,0.4993,0.4967,0.4946,0.4884,0.4884,0.4872,0.4845,0.4813,0.4806,0.48,0.4777,0.4769,0.4867,0.4867,0.4867,0,0.5318,0.5262,0.5252,0.5211,0.5188,0.5189,0.5146,0.5123,0.5078,0.5062,0.5073,0.4992,0.4967,0.4905,0.489,0.4873,0.486,0.4876,0.4808,0.4802,0.4796,0.4774,0.4766,0.4865,0.4866,0.4866,0.4866,0,0.5239,0.52,0.517,0.5128,0.5102,0.506,0.5043,0.5018,0.5014,0.4999,0.4946,0.4918,0.4875,0.486,0.4855,0.4797,0.4804,0.4812,0.4831,0.4787,0.4766,0.4758,0.4864,0.4864,0.4864,0.4865,0,0,0.5172,0.5126,0.5115,0.5096,0.5059,0.5028,0.4987,0.4947,0.4926,0.4895,0.4859,0.4805,0.4813,0.4788,0.4781,0.4753,0.4705,0.4764,0.4763,0.4753,0.4639,0.4632,0.4622,0.4706,0.4705,0.4703,0.4641,0,0.5113,0.504,0.503,0.4966,0.493,0.4931,0.4895,0.4867,0.4853,0.482,0.4803,0.4765,0.4778,0.4764,0.4736,0.4717,0.4682,0.4721,0.4671,0.467,0.4679,0.4611,0.4603,0.4546,0.4633,0.4632,0.4631,0,0.5033,0.5001,0.4933,0.4902,0.4886,0.4854,0.4817,0.4786,0.4755,0.4746,0.472,0.4717,0.4673,0.4696,0.4636,0.4663,0.4643,0.463,0.4628,0.4621,0.4646,0.4601,0.4528,0.4519,0.4618,0.4619,0.462,0,0.499,0.493,0.4882,0.4866,0.4828,0.4805,0.4788,0.476,0.4736,0.4704,0.4689,0.4652,0.4631,0.4602,0.4588,0.4606,0.4529,0.455,0.4519,0.4519,0.4501,0.4502,0.4421,0.449,0.4491,0.4491,0.4491,0,0.4923,0.4881,0.4862,0.4832,0.4786,0.4776,0.4729,0.4713,0.4688,0.4654,0.4653,0.4622,0.4606,0.4572,0.4561,0.4513,0.4504,0.4495,0.4492,0.4494,0.4495,0.4479,0.4482,0.4489,0.4489,0.4489,0.449,0,0.4866,0.4852,0.4799,0.4769,0.476,0.4727,0.47,0.4671,0.4658,0.4616,0.4605,0.4583,0.4544,0.4528,0.4479,0.4472,0.4416,0.4417,0.4426,0.4425,0.4394,0.4397,0.4299,0.4285,0.4365,0.4364,0.4364,0,0.4823,0.4791,0.4758,0.4736,0.4719,0.4684,0.4661,0.465,0.4626,0.459,0.4565,0.4526,0.4493,0.443,0.4409,0.4372,0.4371,0.434,0.4365,0.4368,0.4369,0.437,0.4367,0.4334,0.4333,0.4332,0.4332,0,0.4749,0.4744,0.4711,0.4677,0.465,0.4621,0.4594,0.4576,0.4561,0.4534,0.4494,0.4469,0.442,0.4381,0.4343,0.4325,0.4325,0.4325,0.4315,0.4316,0.4322,0.4317,0.4411,0.4326,0.4327,0.4327,0.4327,0.4328,0.4697,0.4668,0.4641,0.4605,0.4584,0.4558,0.453,0.4514,0.4481,0.444,0.4436,0.4393,0.4365,0.4314,0.4294,0.426,0.4268,0.4255,0.4251,0.4248,0.4245,0.4329,0.4253,0.4254,0.4254,0.4254,0.4254,0,0.4621,0.4604,0.4571,0.4534,0.4505,0.4511,0.4481,0.4457,0.4419,0.4393,0.4362,0.4316,0.4279,0.4257,0.4219,0.4196,0.4195,0.4186,0.4187,0.4182,0.424,0.4252,0.4187,0.4187,0.4187,0.4187,0.4187,0.4187,0.4578,0.4531,0.4523,0.4465,0.4448,0.4407,0.439,0.4366,0.4345,0.4295,0.4264,0.4251,0.4226,0.4187,0.4152,0.4147,0.4132,0.4122,0.4117,0.4171,0.4178,0.4185,0.4195,0.412,0.412,0.4062,0.4061,0.4061]},{"header":{"parameterUnit":"m.s-1","parameterCategory":1,"la1":30.2991,"la2":30.254,"lo1":-89.0895,"lo2":-89.0444,"dy":0.0017,"dx":0.0017,"nx":28,"ny":28,"refTime":"2025-01-23T03:00:00:Z","depth":0,"parameterNumber":3,"parameterNumberName":"V-component_of_WINDS"},"data":[0,0,0,0,0,0,0,0,0,0,0,0,0,0,0,0,0,0,0,0,0,0,0,0,0,0,0,0,0,0,0,0,0,0,0,0,0,0,0,0,0,0,0,0,0,0,0,0,0,0,0,0,0,0,0,0,0,0,-4.0999,-4.1,0,-4.1146,-4.1148,-4.115,-4.108,-4.1077,-4.1073,-4.1069,-4.1217,-4.1224,-4.1231,0,0,0,0,0,0,0,0,0,0,0,0,0,-4.0653,-4.0659,-4.0999,-4.1001,-4.1002,-4.1146,-4.1148,-4.115,-4.1081,-4.1076,-4.1072,-4.1068,-4.1214,-4.1223,-4.1232,0,0,0,0,0,0,0,0,0,0,0,0,0,-4.0802,-4.0662,-4.0998,-4.0985,-4.0986,-4.1146,-4.1148,-4.1151,-4.1082,-4.1076,-4.1071,-4.1065,-4.1211,-4.1222,-4.1233,-4.1414,0,0,-4.1267,-4.1272,0,0,0,0,0,0,0,0,-4.0793,-4.0815,-4.0985,-4.0986,-4.0987,-4.1089,-4.108,-4.1239,-4.1083,-4.1045,-4.1069,-4.1063,-4.1179,-4.1192,-4.1232,-4.142,-4.1427,-4.1268,-4.1275,-4.1279,-4.1283,0,0,0,0,0,0,0,-4.0783,-4.0808,-4.1057,-4.0988,-4.0989,-4.0971,-4.0986,-4.111,-4.1141,-4.1048,-4.1043,-4.1062,-4.1178,-4.1221,-4.1235,-4.1429,-4.1268,-4.1277,-4.1284,-4.1289,-4.1773,-4.1779,0,0,0,0,0,0,-4.0774,-4.08,-4.1052,-4.1061,-4.0875,-4.0981,-4.0998,-4.1062,-4.114,-4.1146,-4.1067,-4.1058,-4.1205,-4.1222,-4.124,-4.1457,-4.1279,-4.129,-4.1296,-4.1767,-4.1774,-4.1781,0,0,0,0,0,0,-4.0767,-4.0797,-4.1046,-4.0929,-4.096,-4.0993,-4.1066,-4.1068,-4.1111,-4.1154,-4.1159,-4.1106,-4.1201,-4.1224,-4.1371,-4.1461,-4.1295,-4.1305,-4.176,-4.1769,-4.1778,-4.1893,0,0,0,0,0,0,-4.0757,-4.0795,-4.0865,-4.0932,-4.0966,-4.1177,-4.1071,-4.1075,-4.1131,-4.1122,-4.1192,-4.1198,-4.1199,-4.1355,-4.1382,-4.1473,-4.1314,-4.1752,-4.1764,-4.1775,-4.1881,-4.1905,-4.1925,0,0,0,0,0,-4.0745,-4.089,-4.0869,-4.09,-4.1055,-4.1182,-4.1202,-4.1201,-4.1139,-4.1209,-4.1236,-4.1196,-4.1446,-4.1371,-4.1401,-4.1497,-4.1746,-4.176,-4.1774,-4.1871,-4.19,-4.1924,0,0,0,0,0,0,-4.0832,-4.0899,-4.0876,-4.1047,-4.111,-4.117,-4.1259,-4.1232,-4.1312,-4.13,-4.1294,-4.131,-4.1463,-4.1494,-4.1408,-4.1675,-4.1586,-4.1607,-4.165,-4.1678,-4.1699,-4.1689,-4.1323,0,0,0,0,0,-4.0871,-4.0971,-4.1023,-4.1169,-4.1202,-4.1225,-4.1281,-4.1275,-4.1339,-4.1365,-4.1402,-4.1465,-4.1558,-4.1619,-4.1707,-4.1884,-4.1899,-4.1965,-4.1987,-4.2005,-4.2023,-4.212,-4.215,-4.1827,-4.1827,-4.1827,0,0,-4.0953,-4.1002,-4.1065,-4.1188,-4.1236,-4.1338,-4.1248,-4.136,-4.1435,-4.1381,-4.1523,-4.1553,-4.1622,-4.1786,-4.1859,-4.1816,-4.2115,-4.2023,-4.2036,-4.2045,-4.2137,-4.2168,-4.2195,-4.1837,-4.1835,-4.1833,0,0,-4.1155,-4.1202,-4.133,-4.138,-4.1454,-4.1468,-4.1499,-4.1564,-4.1582,-4.1725,-4.1686,-4.1775,-4.1935,-4.1986,-4.2033,-4.2255,-4.2221,-4.2283,-4.2398,-4.2493,-4.2518,-4.2541,-4.262,-4.2649,-4.2301,-4.2301,-4.2301,0,-4.1248,-4.1402,-4.1398,-4.1514,-4.1569,-4.1526,-4.1654,-4.1702,-4.1801,-4.1839,-4.1789,-4.199,-4.2033,-4.2208,-4.2262,-4.2301,-4.2336,-4.2276,-4.2515,-4.2537,-4.2558,-4.2634,-4.2664,-4.2308,-4.2307,-4.2307,-4.2306,0,-4.1512,-4.1619,-4.1713,-4.1811,-4.1876,-4.1998,-4.2012,-4.2078,-4.2066,-4.2085,-4.2231,-4.2281,-4.2379,-4.2419,-4.2408,-4.2593,-4.2564,-4.2515,-4.2426,-4.2596,-4.2668,-4.2697,-4.2318,-4.2316,-4.2314,-4.2312,0,0,-4.1774,-4.1869,-4.1904,-4.1948,-4.2026,-4.2108,-4.2227,-4.2323,-4.2381,-4.2449,-4.2549,-4.2685,-4.264,-4.2694,-4.2687,-4.277,-4.2943,-4.271,-4.2712,-4.2753,-4.315,-4.3188,-4.3222,-4.292,-4.2926,-4.293,-4.3145,0,-4.1983,-4.2193,-4.2193,-4.2387,-4.2486,-4.2446,-4.2549,-4.2607,-4.2628,-4.2714,-4.2736,-4.2834,-4.2766,-4.2799,-4.2878,-4.2905,-4.3023,-4.2889,-4.3012,-4.3017,-4.2998,-4.3259,-4.33,-4.35,-4.3173,-4.3177,-4.3181,0,-4.2255,-4.2335,-4.2539,-4.2603,-4.2644,-4.2738,-4.2826,-4.2909,-4.2974,-4.2983,-4.3043,-4.3024,-4.3144,-4.305,-4.3215,-4.3124,-4.3174,-4.3195,-4.3202,-4.3215,-4.311,-4.328,-4.3564,-4.3595,-4.3225,-4.3221,-4.3218,0,-4.2428,-4.2585,-4.2728,-4.2766,-4.2845,-4.2911,-4.2946,-4.3006,-4.3064,-4.3141,-4.3179,-4.3268,-4.3317,-4.3386,-4.3391,-4.3322,-4.3557,-4.3464,-4.3568,-4.3568,-4.3621,-4.3618,-4.3918,-4.3651,-4.365,-4.365,-4.3649,0,-4.2662,-4.2788,-4.2807,-4.2895,-4.3035,-4.3033,-4.3171,-4.32,-4.3254,-4.3346,-4.3315,-4.3401,-4.3402,-4.3491,-4.3495,-4.3631,-4.3653,-4.3663,-4.3663,-4.3667,-4.3666,-4.3701,-4.3688,-4.3658,-4.3656,-4.3654,-4.3653,0,-4.2879,-4.2896,-4.3049,-4.3111,-4.3129,-4.323,-4.3282,-4.3365,-4.3383,-4.35,-4.3527,-4.3554,-4.3656,-4.3668,-4.3786,-4.3789,-4.3954,-4.3938,-4.3933,-4.3931,-4.4035,-4.4025,-4.4369,-4.4415,-4.4116,-4.4119,-4.4122,0,-4.3028,-4.3125,-4.3197,-4.3257,-4.3297,-4.3394,-4.3453,-4.3454,-4.3517,-4.3599,-4.3672,-4.3771,-4.3851,-4.4016,-4.4045,-4.4136,-4.4123,-4.4237,-4.4136,-4.4137,-4.4126,-4.4121,-4.4131,-4.4257,-4.426,-4.4263,-4.4265,0,-4.3291,-4.3295,-4.3383,-4.3475,-4.3547,-4.3618,-4.3685,-4.3736,-4.3745,-4.3817,-4.3922,-4.3984,-4.4106,-4.4205,-4.4293,-4.4328,-4.4299,-4.4296,-4.4325,-4.4331,-4.4325,-4.4331,-4.3988,-4.4289,-4.4286,-4.4285,-4.4283,-4.4282,-4.348,-4.3564,-4.3629,-4.3728,-4.3778,-4.3842,-4.3923,-4.3952,-4.404,-4.414,-4.4134,-4.425,-4.4311,-4.4428,-4.4469,-4.4559,-4.4521,-4.4563,-4.4574,-4.4584,-4.4596,-4.431,-4.4575,-4.4574,-4.4573,-4.4573,-4.4572,0,-4.3743,-4.3782,-4.3873,-4.3969,-4.4047,-4.4013,-4.4085,-4.4152,-4.4255,-4.4315,-4.4395,-4.4515,-4.4611,-4.4648,-4.4741,-4.4806,-4.4795,-4.483,-4.4826,-4.4835,-4.4624,-4.459,-4.4838,-4.4838,-4.4838,-4.4838,-4.4838,-4.4838,-4.3889,-4.403,-4.4042,-4.4207,-4.4245,-4.436,-4.4404,-4.4462,-4.451,-4.4647,-4.4727,-4.4751,-4.4802,-4.4899,-4.4985,-4.4993,-4.5029,-4.5071,-4.5074,-4.4876,-4.4849,-4.4824,-4.4792,-4.5079,-4.5079,-4.5277,-4.5279,-4.5281]}]]